Location: Cogollal
(10.0582°N, 67.8466°W)
Time: 11:31:48
(UTC+00:00)

ATLAS 2AS CENTAUR R/B - Pass Details

Date: 14 April 2024
Orbit: 1016 x 1195 km, 63.7° (Epoch: 24 May)

Event Time Altitude Azimuth Distance (km) Brightness Sun altitude
Exits shadow 08:19:50 24° 329° (NNW) 2,218 4.2 -29.9°
Drops below altitude 10° 08:23:28 10° 354° (N) 3,072 5.2 -29.1°
Sets 08:26:35 0° 5° (N) 4,010 6.0 -28.3°
